Flag for Germany Weather past 2 weeks in Bergheim, North Rhine-Westphalia, Germany

Now
70 °F

Scattered clouds.


Feels Like: 70 °F
Forecast: 44 / 64 °F
Wind: 8 mph from Southeast

Location: Noervenich


UV Index: 0 (Low)

Visibility: N/A


Pressure: 29.65 "Hg

Humidity: 35%

Dew point: 41 °F

Location of BergheimLocation

Historic Weather in Bergheim

°F

Bergheim temperature yesterday

Maximum temperature yesterday: 63 °F (at 3:20 PM)
Minimum temperature yesterday: 39 °F (at 4:20 AM)
Average temperature yesterday: 50 °F

Past Weeks' High & Low Weather Summary

 TemperatureHumidityPressure
High72 °F (Apr 7, 4:20 PM)100% (Apr 6, 2:20 AM)30.45 "Hg (Apr 6, 2:20 AM)
Low32 °F (Apr 16, 5:20 AM)26% (Apr 17, 4:20 PM)29.68 "Hg (Apr 20, 2:20 PM)
Average51 °F68%30.09 "Hg
* Reported Apr 5 3:20 PM — Apr 20 3:20 PM, Bergheim, Weather by CustomWeather, © 2014

Note: Actual official high and low records may vary slightly from our data, if they occured in-between our weather recording intervals... More about our weather records

Advertising

Historic Weather Conditions — Data for Previous 24 hours

 ConditionsComfort  
Time TempWeatherWind HumidityBarometerVisibility
3:20 PM
Apr 20
70 °FScattered clouds.9 mph33%29.68 "HgN/A
2:20 PM68 °FScattered clouds.9 mph38%29.68 "HgN/A
1:20 PM66 °FScattered clouds.10 mph43%29.71 "HgN/A
12:20 PM66 °FPassing clouds.12 mph46%29.71 "HgN/A
11:20 AM64 °FMild.8 mph52%29.71 "HgN/A
10:20 AM63 °FMild.12 mph59%29.71 "Hg6 mi
9:20 AM57 °FCool.3 mph72%29.74 "Hg4 mi
8:20 AM50 °FCool.1 mph94%29.74 "Hg3 mi
7:20 AM46 °FCool.3 mph93%29.77 "Hg3 mi
6:20 AM48 °FCool.No wind94%29.77 "Hg3 mi
5:20 AM46 °FCool.1 mph93%29.77 "Hg2 mi
4:20 AM48 °FCool.2 mph87%29.80 "Hg4 mi
3:20 AM48 °FCool.2 mph87%29.80 "Hg3 mi
2:20 AM48 °FCool.2 mph87%29.83 "Hg4 mi
1:20 AM50 °FCool.5 mph82%29.86 "Hg4 mi
12:20 AM50 °FCool.1 mph82%29.86 "Hg4 mi
11:20 PM
Apr 19
50 °FCool.1 mph82%29.86 "Hg5 mi
10:20 PM54 °FCool.2 mph72%29.89 "Hg6 mi
9:20 PM55 °FCool.7 mph63%29.89 "HgN/A
8:20 PM57 °FRefreshingly cool.12 mph59%29.89 "HgN/A
7:20 PM59 °FRefreshingly cool.13 mph55%29.86 "HgN/A
6:20 PM61 °FRefreshingly cool.13 mph52%29.89 "HgN/A
5:20 PM63 °FMild.10 mph42%29.89 "HgN/A
4:20 PM63 °FMild.9 mph42%29.92 "HgN/A
Weather by CustomWeather, © 2014

See weather overview